Back to catalog

STARLINK-37564

AliveCommunicationsSSO
NORAD 68902·PAYLOAD·🇺🇸 United States

Launched Apr 30, 2026 from Vandenberg Space Force Base

Loading…

Next Passes (next 24 hours)

TLE

FreshSource: CelesTrak SupGP

Epoch: Sep 15, 2026, 03:41 UTC

1 68902C 26097H   26258.15395833 -.00048505  00000+0 -15042-2 0  2584
2 68902  97.2855  92.3948 0001673  79.0975 297.1252 15.33495969    15

Track STARLINK-37564 in real time with AllMySat

Download on the App Store